Location: Eldred Sherwood Park Lake Dam
(42.9416°N, 93.5655°W)
Time: 07:34:08
(UTC+00:00)

Tiros 1 - Pass Details

Date: 08 November 2024
Orbit: 622 x 653 km, 48.4° (Epoch: 06 December)

Event Time Altitude Azimuth Distance (km) Brightness Sun altitude
Rises 01:27:20 0° 235° (SW) 2,950 11.3 -27.5°
Reaches altitude 10° 01:29:39 10° 234° (SW) 2,046 10.3 -27.9°
Enters shadow 01:32:49 42° 223° (SW) 934 8.1 -28.5°
